Regional Weather Roundup
Issued by NWS Upton, NY

Current Version | Previous Version | Graphics & Text | Print | Product List | Glossary Off
Versions: 1 2 3 4 5 6 7 8 9 10 11 12 13 14 15 16 17 18 19 20 21 22 23 24 25 26 27 28 29 30 31 32 33 34 35 36 37 38 39 40 41 42 43 44 45 46 47 48 49 50

000
ASUS41 KOKX 261105
RWROKX

REGIONAL WEATHER ROUNDUP
NATIONAL WEATHER SERVICE NEW YORK NY
600 AM EST THU FEB 26 2015

NOTE: "FAIR" INDICATES FEW OR NO CLOUDS BELOW 12,000 FEET WITH NO
SIGNIFICANT WEATHER AND/OR OBSTRUCTIONS TO VISIBILITY.

NYZ071-072-176-178-NJZ106-104-261200-
NEW YORK CITY METRO AREA


CITY           SKY/WX    TMP DP  RH WIND       PRES   REMARKS
CENTRAL PARK   CLOUDY    22   2  42 NE10      30.02S WCI  11
LAGUARDIA APRT CLOUDY    22   4  46 NE10      30.02R WCI  11
KENNEDY INTL   CLOUDY    24   6  46 NE13      30.02S WCI  12
NEWARK/LIBERTY CLOUDY    22   7  52 NE14G20   30.01S WCI   9
BRNX BOT. GARD   N/A    N/A N/A N/A E5        30.00F
TETERBORO      CLOUDY    21   3  45 NE10      30.01F WCI  10
$$

NYZ177-179-078>081-261200-
LONG ISLAND NEW YORK

CITY           SKY/WX    TMP DP  RH WIND       PRES   REMARKS
FARMINGDALE    CLOUDY    22   6  50 NE10      30.02R WCI  11
ISLIP          CLOUDY    22   8  55 NE14      30.00S WCI   9
SHIRLEY        CLOUDY    22   6  50 N8        30.02S WCI  12
WESTHAMPTON    CLOUDY    22   8  55 NE12      30.02F WCI  10
MONTAUK POINT    N/A     24   7  48 N8        30.04S WCI  15
$$

NYZ052-065-067-261200-
HUDSON VALLEY

CITY           SKY/WX    TMP DP  RH WIND       PRES   REMARKS
WHITE PLAINS   CLOUDY    19   2  47 NE6       29.99S WCI  11
NEWBURGH       NOT AVBL
MONTGOMERY     CLOUDY    17   4  56 NE12      30.01S WCI   4
POUGHKEEPSIE   CLOUDY    18   5  57 N6        30.05R WCI  10
ALBANY         CLOUDY    13   0  56 N8        30.08R WCI   2
$$

NJZ001-105-106-008-010-013-015-019>022-104-261200-
NEW JERSEY

CITY           SKY/WX    TMP DP  RH WIND       PRES   REMARKS
NEWARK/LIBERTY CLOUDY    22   7  52 NE14G20   30.01S WCI   9
TETERBORO      CLOUDY    21   3  45 NE10      30.01F WCI  10
CALDWELL       CLOUDY    20   1  43 NE12      30.02R WCI   8
MORRISTOWN     CLOUDY    23   3  42 N6        30.00R WCI  16
SOMERVILLE     MOCLDY    24   3  40 NE10G16   29.98R WCI  14
SUSSEX         CLOUDY    17   1  49 NE6       30.00R WCI   9
ANDOVER          N/A     17   2  51 VRB6      29.99R WCI   9
TRENTON        CLOUDY    25   7  46 NE10      29.96R WCI  15
MILLVILLE      CLOUDY    31  19  61 NE14      29.89F WCI  21
ATLANTIC CITY  LGT SNOW  30  21  69 NE10      29.90F WCI  21
WRIGHTSTOWN    CLOUDY    27  12  55 NE14      29.92F WCI  15
TOMS RIVER     CLOUDY    28  16  59 NE18G26   29.95F WCI  16
BELMAR         CLOUDY    27   9  46 NE15G22   29.95F WCI  15
$$

PAZ047>061-062-071-261200-
EASTERN PENNSYLVANIA

CITY           SKY/WX    TMP DP  RH WIND       PRES   REMARKS
PHILADELPHIA   CLOUDY    28  12  51 NE16      29.95S WCI  16
ALLENTOWN      CLOUDY    20   2  45 NE6       29.98R WCI  12
SCRANTON       CLOUDY    15   2  56 N7        29.97R WCI   5
$$

CTZ002-004>006-009-010-012-RIZ004-006-007-MAZ004-011-015-261200-
SOUTHERN NEW ENGLAND
 IN CT

CITY           SKY/WX    TMP DP  RH WIND       PRES   REMARKS
BRADLEY INTL   MOCLDY    19   4  51 N6        30.04S WCI  11
HARTFORD       CLOUDY    18   5  57 N8        30.05F WCI   8
DANBURY        CLOUDY    17   3  54 NE6       30.01F WCI   9
WTRBRY/OXFORD  MOCLDY    16   0  48 NE9       29.98F WCI   4
BRIDGEPORT     CLOUDY    20   6  55 NE10      30.03F WCI   9
MERIDEN        CLOUDY    19   5  54 N5        30.03F WCI  12
NEW HAVEN      CLOUDY    20   5  52 N13       30.01F WCI   7
CHESTER        FAIR      19   5  53 NE8       30.01R WCI   9
GROTON         CLOUDY    20   5  52 NE10      30.03F WCI   9
WILLIMANTIC    CLOUDY    18   4  54 NE7       30.05R WCI   9

 IN RI

CITY           SKY/WX    TMP DP  RH WIND       PRES   REMARKS
PROVIDENCE     CLOUDY    19   5  54 N10       30.06R WCI   7
BLOCK ISLAND   CLOUDY    23   7  50 NE13G18   30.02R WCI  11
WESTERLY       CLOUDY    21   4  47 N5        30.05S WCI  15

 IN MA

CITY           SKY/WX    TMP DP  RH WIND       PRES   REMARKS
BOSTON         CLOUDY    18   4  54 N7        30.06S WCI   9
WORCESTER      MOCLDY    13  32 100 N6        29.97S WCI   4
WESTFIELD      MOCLDY    17   4  56 CALM      30.03F
PROVINCETOWN   CLOUDY    25  12  58 N10G17    30.04S WCI  15
NANTUCKET      CLOUDY    25  14  63 N12       30.02R WCI  14
$$

ANZ330-335-338-340-345-350-353-355-261200-
COASTAL MARINE OBSERVATIONS


STATION/POSITION TIME  SKY/WX   TEMP    WIND        PRES    VSBY  WAVE
                                AIR SEA DIR/SP/G                  HT/PER
                 (UTC)          (F)     (DEG/KT/KT) (MB)    (MI)  (FT/S)
NY HARB ENTRANCE 1100            27 39   40/ 17/ 21 1015.4          3/ 4
4S FIRE IS       NOT AVBL
20S FIRE ISLAND  1000               34              1015.4          4/ 4
23SW MTP         1100                                 N/A           4/ 4
HUDSON CANYON    NOT AVBL
EXECUTION ROCKS  NOT AVBL
WESTERN LI SOUND NOT AVBL
CENTRAL LI SOUND NOT AVBL
EASTERN LI SOUND NOT AVBL
ROBBINS REEF     1100            23      10/ 15/ 17 1014.9
$$


>>>>>>>>>>>>>>>>>>>>>>>>>>>> KEY <<<<<<<<<<<<<<<<<<<<<<<<<<<
>                                                          <
>     SKY/WX - SKY CONDITION/PRESENT WEATHER               <
>     TMP    - TEMPERATURE IN FAHRENHEIT                   <
>     DP     - DEWPOINT IN FAHRENHEIT                      <
>     RH     - RELATIVE HUMIDITY IN PERCENT                <
>     WIND   - DIRECTION AND SPEED IN MPH                  <
>     PRES   - MEAN SEA LEVEL PRESSURE IN INCHES OF HG     <
>     WCI    - WIND CHILL INDEX                            <
>     VSB    - VISIBILITY IN MILES                         <
>     HX     - HEAT INDEX                                  <
>     TC     - TEMPERATURE IN CELSIUS                      <
>     VRB    - VARIABLE WIND DIRECTION                     <
>                                                          <
>>>>>>>>>>>>>>>>>>>>>>>>>>>> KEY <<<<<<<<<<<<<<<<<<<<<<<<<<<





USA.gov is the U.S. government's official web portal to all federal, state and local government web resources and services.